Вернуться в каталог

SUPERVIEW NEO-3 01

АктивенНаукаSSO
NORAD 59510·PAYLOAD·🇨🇳 China

Запущен Apr 15, 2024 с Jiuquan Satellite Launch Center

Loading…

Ближайшие Пролёты (ближайшие 24 часа)

TLE

СвежийSource: Space-Track

Эпоха: Sep 14, 2026, 15:38 UTC

1 59510U 24072A   26257.65206619  .00006301  00000-0  27903-3 0  9996
2 59510  97.4082 336.4484 0002519 124.1448 236.0028 15.21993241134315

Отслеживайте SUPERVIEW NEO-3 01 в реальном времени с AllMySat

Download on the App Store